This is the latest recevied weather packets stored in our database for station/object KM4NDN. If no packets are shown the sender has not sent any weather packets the latest 10 day(s).
| Time | Temp. | Humidity | Pressure | Rain* | Wind** | Luminosity | Snow |
|---|---|---|---|---|---|---|---|
| 1777636342 | 5.56° C | 93% | 1011 hPa | 0 mm | - | 20 W/m² | - |
| 1777636041 | 5.56° C | 93% | 1011 hPa | 0 mm | - | 15 W/m² | - |
| 1777635737 | 5° C | 93% | 1011.3 hPa | 0 mm | - | 12 W/m² | - |
| 1777635435 | 5° C | 93% | 1011.5 hPa | 1.27 mm | - | 7 W/m² | - |
| 1777635132 | 5° C | 93% | 1011.3 hPa | 0 mm | - | 6 W/m² | - |
| 1777634827 | 5° C | 93% | 1011.2 hPa | 1.78 mm | - | 9 W/m² | - |
| 1777634525 | 5° C | 92% | 1011 hPa | 1.78 mm | - | 8 W/m² | - |
| 1777634221 | 5° C | 92% | 1011.2 hPa | 1.27 mm | - | 4 W/m² | - |
| 1777633918 | 5° C | 92% | 1011.2 hPa | 3.05 mm | - | 3 W/m² | - |
| 1777633615 | 5° C | 92% | 1010.9 hPa | 3.56 mm | - | 2 W/m² | - |
| 1777633313 | 5° C | 92% | 1010.8 hPa | 1.78 mm | - | 1 W/m² | - |
| 1777633011 | 5° C | 92% | 1010.8 hPa | 0 mm | - | 1 W/m² | - |
| 1777632707 | 5° C | 92% | 1010.9 hPa | 0 mm | - | 2 W/m² | - |
| 1777632403 | 5° C | 92% | 1010.7 hPa | 0 mm | - | 2 W/m² | - |
| 1777632101 | 5° C | 92% | 1010.7 hPa | 1.27 mm | - | 1 W/m² | - |
| 1777631798 | 5° C | 92% | 1011 hPa | 1.78 mm | - | 1 W/m² | - |
| 1777631496 | 5° C | 92% | 1011.2 hPa | 3.05 mm | - | 0 W/m² | - |
| 1777631192 | 5° C | 92% | 1011.3 hPa | 3.05 mm | - | 0 W/m² | - |
| 1777630890 | 5° C | 92% | 1011.2 hPa | 3.05 mm | - | 0 W/m² | - |
| 1777630585 | 5° C | 92% | 1011.3 hPa | 1.27 mm | - | 0 W/m² | - |
| 1777630282 | 5° C | 92% | 1011.2 hPa | 1.78 mm | - | 0 W/m² | - |
| 1777629980 | 5.56° C | 92% | 1011 hPa | 1.78 mm | - | 0 W/m² | - |
| 1777629678 | 5.56° C | 92% | 1011 hPa | 0 mm | - | 0 W/m² | - |
| 1777629374 | 5.56° C | 92% | 1011.3 hPa | 1.27 mm | - | 0 W/m² | - |
| 1777629069 | 5.56° C | 92% | 1011.2 hPa | 1.27 mm | - | 0 W/m² | - |
* Rain latest hour (hover to see other rain measurements)
** Current wind speed in m/s (hover to see current wind gust speed)